King Khaled, Saudi Arabia

4:13 PM +03 on April 26, 2017 (GMT +0300)
King Khaled International

Weather History for OERK - October, 2012

Change the Weather History Date:

Saturday, October 20, 2012

  Actual Average Record
Temperature  
Mean Temperature 84 °F -  
Max Temperature 95 °F 83 °F 100 °F (2000)
Min Temperature 72 °F 58 °F 57 °F (1996)
Cooling Degree Days 18    
Growing Degree Days 34 (Base 50)    
Moisture  
Dew Point 34 °F    
Average Humidity 16    
Maximum Humidity 29    
Minimum Humidity 5    
Precipitation  
Precipitation 0.00 in - - ()
Sea Level Pressure  
Sea Level Pressure 30.00 in    
Wind  
Wind Speed 5 mph ()    
Max Wind Speed 13 mph    
Max Gust Speed -    
Visibility 6.0 miles    
Events      
Averages and records for this station are not official NWS values.
T = Trace of Precipitation, MM = Missing Value Source: Averaged Metar Reports

Daily Weather History Graph

Daily Weather History Graph

Search for Another Location

Airport or City:

Trip Planner

Search our weather history database for the weather conditions in past years. The results will help you decide how hot, cold, wet, or windy it might be!

Date:

Astronomy

Oct. 20, 2012 Rise Set
Actual Time 5:53 AM +03 5:21 PM +03
Civil Twilight 5:30 AM +03 5:44 PM +03
Nautical Twilight 5:03 AM +03 6:11 PM +03
Astronomical Twilight 4:37 AM +03 6:37 PM +03
Moon 10:51 AM +03 (10/20) 9:59 PM +03 (10/20)
Length of Visible Light 12h 14m
Length of Day
11h 27m
Waxing Crescent, 31% of the Moon is Illuminated
Oct 20
Waxing Crescent
Oct 22
First Quarter
Oct 29
Full
Nov 7
Last Quarter
Nov 14
New

Hourly Weather History & Observations

Time (+03) Temp. Dew Point Humidity Pressure Visibility Wind Dir Wind Speed Gust Speed Precip Events Conditions
12:00 AM 79 °F 43 °F 18% 29.90 in 6 mi SSE 5.8 mph - -  
12:00 AM 78.8 °F 42.8 °F 28% 30.04 in - SSE 5.8 mph - N/A   Clear
1:00 AM 77.0 °F 42.8 °F 29% 30.01 in - SSE 5.8 mph - N/A   Clear
2:00 AM 78.8 °F 41.0 °F 26% 30.01 in - SSE 5.8 mph - N/A   Clear
3:00 AM 75 °F 39 °F 17% 29.89 in 6 mi Calm Calm - -  
3:00 AM 75.2 °F 39.2 °F 27% 30.01 in - Calm Calm - N/A   Clear
4:00 AM 77.0 °F 37.4 °F 24% 30.01 in - South 5.8 mph - N/A   Clear
5:00 AM 78.8 °F 33.8 °F 20% 30.01 in - South 6.9 mph - N/A   Clear
6:00 AM 75 °F 36 °F 14% 29.92 in 6 mi SE 4.6 mph - -   Clear
6:00 AM 75.2 °F 35.6 °F 24% 30.04 in - SE 4.6 mph - N/A   Clear
7:00 AM 73.4 °F 37.4 °F 27% 30.04 in - Calm Calm - N/A   Clear
8:00 AM 82.4 °F 35.6 °F 19% 30.06 in - South 8.1 mph - N/A   Clear
9:00 AM 87 °F 36 °F 8% 29.94 in 6 mi South 8.1 mph - -   Clear
9:00 AM 87.8 °F 35.6 °F 16% 30.06 in - South 8.1 mph - N/A   Clear
10:00 AM 89.6 °F 32.0 °F 13% 30.06 in - South 11.5 mph - N/A   Clear
11:00 AM 91.4 °F 32.0 °F 12% 30.04 in - SSW 12.7 mph - N/A   Clear
12:00 PM 93 °F 32 °F 5% 29.89 in 6 mi South 11.5 mph - -   Clear
12:00 PM 93.2 °F 32.0 °F 11% 30.04 in - South 11.5 mph - N/A   Clear
1:00 PM 93.2 °F 30.2 °F 11% 30.01 in - South 9.2 mph - N/A   Clear
2:00 PM 95.0 °F 32.0 °F 11% 29.98 in - South 9.2 mph - N/A   Clear
3:00 PM 94 °F 34 °F 6% 29.86 in 6 mi SSE 5.8 mph - -   Clear
3:00 PM 93.2 °F 33.8 °F 12% 29.98 in - SSE 5.8 mph - N/A   Clear
4:00 PM 93.2 °F 30.2 °F 11% 30.01 in - South 8.1 mph - N/A   Clear
5:00 PM 91.4 °F 32.0 °F 12% 30.01 in - South 9.2 mph - N/A   Clear
6:00 PM 87 °F 30 °F 6% 29.90 in 6 mi SSE 3.5 mph - -  
6:00 PM 87.8 °F 30.2 °F 13% 30.01 in - SSE 3.5 mph - N/A   Clear
7:00 PM 82.4 °F 30.2 °F 15% 30.04 in - ESE 3.5 mph - N/A   Clear
8:00 PM 82.4 °F 32.0 °F 16% 30.04 in - East 4.6 mph - N/A   Clear
9:00 PM 79 °F 30 °F 9% 29.92 in 6 mi Calm Calm - -  
9:00 PM 78.8 °F 30.2 °F 17% 30.04 in - Calm Calm - N/A   Clear
10:00 PM 77.0 °F 32.0 °F 19% 30.04 in - Calm Calm - N/A   Clear
11:00 PM 75.2 °F 33.8 °F 22% 30.04 in - Calm Calm - N/A   Clear